[[{"header":{"parameterUnit":"m.s-1","parameterCategory":1,"la1":30.2991,"la2":30.254,"lo1":-89.0895,"lo2":-89.0444,"dy":0.0017,"dx":0.0017,"nx":28,"ny":28,"refTime":"2024-04-25T03:00:00:Z","depth":0,"parameterNumber":2,"parameterNumberName":"U-component_of_WINDS"},"data":[0,0,0,0,0,0,0,0,0,0,0,0,0,0,0,0,0,0,0,0,0,0,0,0,0,0,0,0,0,0,0,0,0,0,0,0,0,0,0,0,0,0,0,0,0,0,0,0,0,0,0,0,0,0,0,0,0,0,-1.8743,-1.8743,0,-1.8805,-1.8806,-1.8807,-1.8803,-1.8802,-1.8802,-1.8801,-1.8865,-1.8867,-1.887,0,0,0,0,0,0,0,0,0,0,0,0,0,-1.862,-1.8622,-1.8742,-1.8743,-1.8744,-1.8805,-1.8806,-1.8807,-1.8803,-1.8802,-1.8801,-1.88,-1.8864,-1.8867,-1.887,0,0,0,0,0,0,0,0,0,0,0,0,0,-1.8677,-1.8623,-1.8742,-1.875,-1.8751,-1.8805,-1.8806,-1.8807,-1.8804,-1.8802,-1.8801,-1.88,-1.8863,-1.8867,-1.8871,-1.8921,0,0,-1.8882,-1.8884,0,0,0,0,0,0,0,0,-1.8674,-1.8682,-1.8748,-1.8749,-1.8751,-1.8795,-1.8786,-1.8845,-1.8804,-1.8784,-1.8801,-1.8799,-1.8843,-1.8848,-1.8863,-1.8924,-1.8927,-1.8883,-1.8885,-1.8887,-1.8888,0,0,0,0,0,0,0,-1.867,-1.8679,-1.8767,-1.8749,-1.8751,-1.875,-1.8757,-1.8798,-1.882,-1.8785,-1.8785,-1.8793,-1.8843,-1.8859,-1.8864,-1.8928,-1.8882,-1.8886,-1.8888,-1.889,-1.9035,-1.9036,0,0,0,0,0,0,-1.8664,-1.8676,-1.8765,-1.8769,-1.8708,-1.8753,-1.8761,-1.8782,-1.882,-1.8824,-1.8794,-1.8792,-1.8853,-1.886,-1.8867,-1.8929,-1.8887,-1.889,-1.8892,-1.9033,-1.9035,-1.9037,0,0,0,0,0,0,-1.8662,-1.8672,-1.8763,-1.8722,-1.8734,-1.8757,-1.8781,-1.8784,-1.88,-1.8826,-1.883,-1.8806,-1.8853,-1.8861,-1.8908,-1.8931,-1.8892,-1.8895,-1.9031,-1.9034,-1.9036,-1.9053,0,0,0,0,0,0,-1.8658,-1.8671,-1.8691,-1.8723,-1.8736,-1.8803,-1.8783,-1.8786,-1.8807,-1.8805,-1.8838,-1.8843,-1.8852,-1.8902,-1.8912,-1.8935,-1.8898,-1.9029,-1.9032,-1.9035,-1.9051,-1.9056,-1.906,0,0,0,0,0,-1.8654,-1.8693,-1.8692,-1.8703,-1.8761,-1.8804,-1.8812,-1.8822,-1.8809,-1.8828,-1.8845,-1.8842,-1.8927,-1.8907,-1.8918,-1.8943,-1.9028,-1.9031,-1.9035,-1.9048,-1.9055,-1.906,0,0,0,0,0,0,-1.8663,-1.8697,-1.8696,-1.8747,-1.8773,-1.8804,-1.8829,-1.8828,-1.8858,-1.8856,-1.8867,-1.8875,-1.8921,-1.8937,-1.8914,-1.8994,-1.8976,-1.8981,-1.8982,-1.8988,-1.8993,-1.8988,-1.8901,0,0,0,0,0,-1.8671,-1.8703,-1.8732,-1.8774,-1.8787,-1.8806,-1.8825,-1.8831,-1.8858,-1.8868,-1.8888,-1.8915,-1.8948,-1.8969,-1.9,-1.9053,-1.906,-1.9076,-1.908,-1.9084,-1.9089,-1.9118,-1.9125,-1.9048,-1.9048,-1.9048,0,0,-1.8688,-1.8711,-1.873,-1.8776,-1.8797,-1.883,-1.8815,-1.8851,-1.8875,-1.8874,-1.8919,-1.8935,-1.8965,-1.9015,-1.9038,-1.9029,-1.9112,-1.9089,-1.9091,-1.9094,-1.9122,-1.913,-1.9136,-1.905,-1.905,-1.905,0,0,-1.8735,-1.8756,-1.8793,-1.8814,-1.8846,-1.8858,-1.8867,-1.8898,-1.8908,-1.8954,-1.8954,-1.8983,-1.904,-1.9061,-1.9079,-1.9136,-1.9134,-1.9146,-1.9171,-1.9199,-1.9205,-1.921,-1.9231,-1.9238,-1.9151,-1.9151,-1.9151,0,-1.8752,-1.8802,-1.8813,-1.8849,-1.8869,-1.8869,-1.8908,-1.8927,-1.8967,-1.8982,-1.8971,-1.9042,-1.9062,-1.9117,-1.9131,-1.9146,-1.9157,-1.9142,-1.9203,-1.9209,-1.9214,-1.9233,-1.9241,-1.9152,-1.9152,-1.9152,-1.9151,0,-1.8822,-1.8856,-1.8883,-1.8922,-1.8945,-1.8982,-1.8998,-1.9021,-1.9024,-1.9038,-1.9084,-1.9109,-1.9146,-1.9159,-1.9163,-1.9215,-1.9209,-1.9201,-1.9182,-1.9223,-1.9241,-1.9248,-1.9154,-1.9153,-1.9153,-1.9153,0,0,-1.8877,-1.8921,-1.893,-1.8948,-1.8983,-1.901,-1.9047,-1.9083,-1.9102,-1.913,-1.9161,-1.9209,-1.9202,-1.9223,-1.923,-1.9254,-1.9298,-1.9244,-1.9245,-1.9253,-1.9356,-1.9362,-1.937,-1.9297,-1.9298,-1.9299,-1.9354,0,-1.8928,-1.8994,-1.9004,-1.9062,-1.9094,-1.9095,-1.9128,-1.9153,-1.9166,-1.9196,-1.9211,-1.9245,-1.9233,-1.9246,-1.927,-1.9287,-1.9319,-1.9283,-1.9326,-1.9328,-1.9318,-1.938,-1.9386,-1.9436,-1.9361,-1.9362,-1.9363,0,-1.8996,-1.9026,-1.9087,-1.9118,-1.9132,-1.9161,-1.9194,-1.9223,-1.9251,-1.9259,-1.9283,-1.9287,-1.9325,-1.9305,-1.9359,-1.9335,-1.9353,-1.9364,-1.9366,-1.937,-1.9348,-1.9386,-1.9453,-1.946,-1.9375,-1.9374,-1.9373,0,-1.903,-1.9086,-1.9129,-1.9144,-1.9181,-1.9202,-1.9218,-1.9245,-1.9266,-1.9296,-1.9309,-1.9343,-1.9362,-1.9388,-1.9401,-1.9385,-1.9454,-1.9435,-1.9462,-1.9461,-1.9476,-1.9475,-1.9546,-1.9488,-1.9488,-1.9487,-1.9487,0,-1.9087,-1.9124,-1.9145,-1.9172,-1.9214,-1.9226,-1.9267,-1.9283,-1.9307,-1.9337,-1.934,-1.9368,-1.9383,-1.9414,-1.9424,-1.9467,-1.9475,-1.9483,-1.9485,-1.9483,-1.9482,-1.9495,-1.9492,-1.9489,-1.9489,-1.9489,-1.9488,0,-1.9132,-1.9147,-1.9195,-1.9226,-1.9235,-1.9264,-1.9291,-1.9317,-1.9331,-1.9369,-1.9379,-1.94,-1.9436,-1.9452,-1.9496,-1.9503,-1.9552,-1.9552,-1.9542,-1.9543,-1.9569,-1.9567,-1.9652,-1.9663,-1.9597,-1.9597,-1.9598,0,-1.9167,-1.9195,-1.9229,-1.925,-1.9267,-1.9299,-1.9321,-1.9334,-1.9356,-1.9391,-1.9413,-1.9449,-1.9479,-1.9536,-1.9556,-1.959,-1.959,-1.9618,-1.9595,-1.9592,-1.9591,-1.9589,-1.9592,-1.9622,-1.9623,-1.9623,-1.9623,0,-1.9227,-1.9233,-1.9264,-1.9298,-1.9323,-1.9351,-1.9377,-1.9394,-1.9411,-1.9436,-1.9472,-1.9495,-1.9541,-1.9577,-1.9612,-1.9629,-1.9629,-1.963,-1.9638,-1.9636,-1.963,-1.9634,-1.9554,-1.9628,-1.9628,-1.9628,-1.9627,-1.9627,-1.9268,-1.9294,-1.9322,-1.9356,-1.9378,-1.9402,-1.9429,-1.9445,-1.9476,-1.9514,-1.952,-1.956,-1.9587,-1.9635,-1.9653,-1.9684,-1.9677,-1.9689,-1.9692,-1.9695,-1.9696,-1.9625,-1.9691,-1.9691,-1.9691,-1.969,-1.969,0,-1.9329,-1.9347,-1.9378,-1.9415,-1.9442,-1.944,-1.947,-1.9492,-1.9527,-1.9553,-1.9582,-1.9625,-1.966,-1.9682,-1.9717,-1.9738,-1.9739,-1.9747,-1.9745,-1.9749,-1.9701,-1.969,-1.9745,-1.9745,-1.9745,-1.9745,-1.9745,-1.9745,-1.9363,-1.9407,-1.9417,-1.9471,-1.9488,-1.9527,-1.9544,-1.9567,-1.9588,-1.9635,-1.9664,-1.9679,-1.9703,-1.974,-1.9772,-1.9778,-1.9791,-1.9799,-1.9804,-1.9758,-1.9753,-1.9747,-1.9737,-1.9802,-1.9802,-1.9851,-1.9851,-1.9851]},{"header":{"parameterUnit":"m.s-1","parameterCategory":1,"la1":30.2991,"la2":30.254,"lo1":-89.0895,"lo2":-89.0444,"dy":0.0017,"dx":0.0017,"nx":28,"ny":28,"refTime":"2024-04-25T03:00:00:Z","depth":0,"parameterNumber":3,"parameterNumberName":"V-component_of_WINDS"},"data":[0,0,0,0,0,0,0,0,0,0,0,0,0,0,0,0,0,0,0,0,0,0,0,0,0,0,0,0,0,0,0,0,0,0,0,0,0,0,0,0,0,0,0,0,0,0,0,0,0,0,0,0,0,0,0,0,0,0,3.4478,3.4477,0,3.4441,3.4441,3.4441,3.4365,3.4363,3.4362,3.436,3.4325,3.4326,3.4326,0,0,0,0,0,0,0,0,0,0,0,0,0,3.4484,3.4484,3.4478,3.4477,3.4477,3.4442,3.4441,3.4441,3.4365,3.4363,3.4362,3.436,3.4325,3.4326,3.4326,0,0,0,0,0,0,0,0,0,0,0,0,0,3.4468,3.4484,3.4478,3.4435,3.4431,3.4442,3.4441,3.444,3.4366,3.4363,3.4361,3.4359,3.4325,3.4326,3.4326,3.4377,0,0,3.4329,3.4329,0,0,0,0,0,0,0,0,3.4469,3.4468,3.4442,3.4438,3.4433,3.4405,3.443,3.4419,3.4366,3.439,3.436,3.4358,3.4354,3.4352,3.435,3.4375,3.4373,3.4329,3.4329,3.4329,3.433,0,0,0,0,0,0,0,3.447,3.4469,3.4463,3.4441,3.4436,3.4418,3.4413,3.4428,3.4386,3.4388,3.4383,3.4379,3.4351,3.435,3.4349,3.4373,3.4329,3.4329,3.433,3.433,3.4437,3.4439,0,0,0,0,0,0,3.4477,3.447,3.4465,3.4462,3.4446,3.442,3.4415,3.4417,3.4385,3.4378,3.4381,3.4376,3.435,3.4348,3.4347,3.4404,3.4329,3.433,3.433,3.4434,3.4437,3.444,0,0,0,0,0,0,3.4477,3.4477,3.4466,3.4465,3.4462,3.4422,3.4425,3.4417,3.4416,3.438,3.4372,3.4387,3.4348,3.4346,3.437,3.4402,3.433,3.4331,3.4431,3.4435,3.4438,3.4518,0,0,0,0,0,0,3.4478,3.4478,3.4496,3.4466,3.4462,3.4489,3.4427,3.4418,3.4417,3.441,3.4384,3.4377,3.4346,3.4369,3.437,3.4401,3.4332,3.4428,3.4433,3.4437,3.4512,3.4523,3.4533,0,0,0,0,0,3.4478,3.452,3.4497,3.4497,3.4484,3.4491,3.4489,3.4451,3.442,3.4438,3.4415,3.4378,3.4398,3.4372,3.4373,3.4405,3.4426,3.4432,3.4437,3.4507,3.4521,3.4533,0,0,0,0,0,0,3.4556,3.4515,3.449,3.4523,3.4511,3.4478,3.45,3.4467,3.4464,3.4458,3.4412,3.4407,3.4436,3.4423,3.4395,3.4451,3.4406,3.4412,3.4459,3.4472,3.4483,3.4485,3.4332,0,0,0,0,0,3.4577,3.4585,3.4549,3.4582,3.4577,3.454,3.4541,3.4513,3.4499,3.4494,3.4472,3.4461,3.4464,3.4467,3.4469,3.451,3.4503,3.4532,3.4543,3.4551,3.4557,3.4578,3.459,3.4457,3.4457,3.4457,0,0,3.4621,3.4599,3.4607,3.4597,3.4585,3.4594,3.4536,3.4549,3.4556,3.4496,3.4516,3.4501,3.4484,3.4517,3.453,3.4506,3.4592,3.4558,3.4566,3.4566,3.4584,3.4597,3.4608,3.4461,3.446,3.446,0,0,3.4705,3.469,3.4715,3.4703,3.4685,3.4659,3.4666,3.4638,3.4624,3.4644,3.4599,3.4607,3.4614,3.4604,3.46,3.4681,3.4647,3.4683,3.4739,3.4759,3.477,3.4779,3.4807,3.4818,3.4689,3.4689,3.4689,0,3.4762,3.4774,3.4733,3.4748,3.4745,3.4691,3.4716,3.4707,3.4691,3.469,3.4664,3.4671,3.4656,3.4685,3.4705,3.4704,3.471,3.4685,3.4771,3.478,3.4788,3.4815,3.4826,3.4693,3.4693,3.4692,3.4692,0,3.4844,3.4854,3.4877,3.4861,3.4861,3.4881,3.4844,3.4848,3.4821,3.4798,3.4819,3.48,3.4796,3.4801,3.4774,3.4826,3.4812,3.4779,3.4733,3.4806,3.483,3.484,3.47,3.4698,3.4697,3.4696,0,0,3.4977,3.4938,3.4947,3.4939,3.4914,3.4921,3.4939,3.4935,3.494,3.493,3.4945,3.4952,3.4921,3.4917,3.4888,3.4907,3.4972,3.4871,3.487,3.4891,3.5028,3.5053,3.5065,3.4949,3.4951,3.4952,3.5029,0,3.5055,3.5084,3.5047,3.5084,3.5092,3.5041,3.5057,3.5044,3.5024,3.5028,3.5006,3.5011,3.4971,3.4967,3.4983,3.496,3.4999,3.4954,3.4962,3.4963,3.4968,3.5078,3.5104,3.5178,3.5038,3.504,3.5041,0,3.5151,3.5145,3.5183,3.5155,3.5157,3.5172,3.5165,3.517,3.5154,3.5138,3.5134,3.51,3.5116,3.5071,3.5093,3.5064,3.5065,3.5055,3.5057,3.5056,3.5007,3.508,3.5201,3.5212,3.5056,3.5055,3.5054,0,3.5244,3.5245,3.5268,3.5262,3.5231,3.5243,3.5231,3.5213,3.5212,3.5207,3.5206,3.5202,3.5201,3.5199,3.5165,3.5135,3.5192,3.5144,3.5179,3.518,3.5194,3.5193,3.5316,3.5195,3.5194,3.5194,3.5194,0,3.5335,3.536,3.5309,3.5323,3.5349,3.5307,3.5335,3.5317,3.5302,3.5312,3.5267,3.5278,3.5232,3.5238,3.5212,3.5234,3.5234,3.5222,3.5214,3.5226,3.5227,3.5226,3.522,3.5197,3.5196,3.5196,3.5195,0,3.5443,3.541,3.5431,3.54,3.5392,3.5413,3.5387,3.5398,3.5375,3.5388,3.5389,3.5353,3.5357,3.5323,3.5322,3.5304,3.5339,3.5323,3.5344,3.5339,3.5376,3.5374,3.5502,3.5517,3.5387,3.5388,3.5389,0,3.5504,3.5522,3.5492,3.5495,3.5485,3.5491,3.549,3.545,3.5451,3.5434,3.5448,3.5449,3.5447,3.5456,3.543,3.5429,3.5412,3.5457,3.5412,3.5423,3.5413,3.5412,3.5414,3.5467,3.5469,3.547,3.5471,0,3.5615,3.5598,3.5598,3.5593,3.5593,3.5587,3.5578,3.5584,3.5539,3.5543,3.5547,3.5545,3.5543,3.5545,3.5538,3.5525,3.5491,3.5486,3.5494,3.5506,3.5517,3.5512,3.537,3.5483,3.5482,3.5481,3.548,3.548,3.5702,3.5715,3.5696,3.5698,3.5687,3.568,3.5689,3.5667,3.5669,3.5664,3.564,3.5648,3.5631,3.5619,3.5609,3.5615,3.5594,3.5605,3.5608,3.5612,3.5619,3.5516,3.5614,3.5614,3.5613,3.5613,3.5613,0,3.5811,3.5796,3.5798,3.5787,3.5788,3.5755,3.5744,3.5748,3.5755,3.5742,3.5741,3.5746,3.5747,3.572,3.5718,3.5728,3.5712,3.5729,3.5728,3.5726,3.5638,3.5631,3.5741,3.5741,3.5741,3.5741,3.5741,3.5741,3.5868,3.5889,3.5869,3.5884,3.5869,3.5876,3.5873,3.5866,3.5855,3.5862,3.5862,3.5845,3.5827,3.5823,3.5822,3.5815,3.5816,3.5838,3.5825,3.5744,3.5732,3.572,3.5713,3.5838,3.5839,3.5912,3.5912,3.5913]}]]